Date String (YYYY-MM-DD hh:mm:ss) UTC,Instrument flags,Ambient pressure (hPa),Sample flow (lpm),Bypass flow (lpm),Sample temperature (°C),Ambient temperature (°C),ASC tube jacket temperature (°C),LED temperature (°C),Box temperature (°C),Sample RH (%),Span deviation,Mass concentration (μg/m³),Mass concentration (μg/m³),Mass concentration (μg/m³)
DateTimeUTC,F1_M11,P_M11,Q1_M11,Q2_M11,T1_M11,T2_M11,T3_M11,T4_M11,T5_M11,U1_M11,ZSPAN_M11,X0_M11,X2_M11,X1_M11
2022-12-02 13:00:00,,0811.6,4.99,0.00,21.8,20.3,00.0,30.8,23.5,13.8,0000.0,0002.64,0000.73,0000.37
2022-12-02 13:01:00,,0811.6,5.00,0.00,21.8,20.3,00.0,30.7,23.5,13.8,0000.0,0002.56,0000.73,0000.36
2022-12-02 13:02:00,,0811.7,4.99,0.00,21.8,20.3,00.0,30.7,23.5,14.3,0000.0,0003.46,0000.78,0000.36
2022-12-02 13:03:00,,0811.7,5.00,0.00,21.8,20.3,00.0,30.7,23.4,14.1,0000.0,0003.64,0000.82,0000.36
2022-12-02 13:04:00,,0811.7,5.00,0.00,21.7,20.3,00.0,30.7,23.4,13.9,0000.0,0003.78,0000.86,0000.36
2022-12-02 13:05:00,,0811.6,5.00,0.00,21.7,20.3,00.0,30.7,23.4,14.0,0000.0,0003.01,0000.88,0000.36
2022-12-02 13:06:00,,0811.8,5.00,0.00,21.7,20.3,00.0,30.7,23.4,13.6,0000.0,0002.78,0000.84,0000.36
2022-12-02 13:07:00,,0811.8,5.00,0.00,21.7,20.3,00.0,30.7,23.4,13.9,0000.0,0002.91,0000.86,0000.36
2022-12-02 13:08:00,,0811.8,5.00,0.00,21.7,20.3,00.0,30.7,23.4,13.5,0000.0,0003.06,0000.90,0000.37
2022-12-02 13:09:00,,0811.9,5.01,0.00,21.7,20.3,00.0,30.7,23.4,13.7,0000.0,0003.09,0000.94,0000.38
2022-12-02 13:10:00,,0811.9,5.00,0.00,21.7,20.3,00.0,30.7,23.5,14.0,0000.0,0002.98,0000.91,0000.37
2022-12-02 13:11:00,,0811.8,5.00,0.00,21.7,20.3,00.0,30.7,23.5,14.0,0000.0,0003.61,0000.94,0000.38
2022-12-02 13:12:00,,0811.9,4.99,0.00,21.7,20.3,00.0,30.7,23.5,13.8,0000.0,0003.61,0000.95,0000.38
2022-12-02 13:13:00,,0811.9,5.00,0.00,21.7,20.2,00.0,30.7,23.4,13.7,0000.0,0002.76,0000.90,0000.38
2022-12-02 13:14:00,,0812.0,5.00,0.00,21.7,20.2,00.0,30.7,23.3,14.0,0000.0,0002.59,0000.84,0000.38
2022-12-02 13:15:00,,0811.9,5.00,0.00,21.7,20.2,00.0,30.7,23.4,14.1,0000.0,0002.59,0000.78,0000.37
2022-12-02 13:16:00,,0811.8,4.99,0.00,21.7,20.2,00.0,30.7,23.3,14.4,0000.0,0002.98,0000.76,0000.37
2022-12-02 13:17:00,,0812.0,5.00,0.00,21.7,20.2,00.0,30.7,23.3,14.1,0000.0,0003.23,0000.80,0000.36
2022-12-02 13:18:00,,0811.9,4.99,0.00,21.7,20.2,00.0,30.7,23.3,14.2,0000.0,0003.18,0000.79,0000.36
2022-12-02 13:19:00,,0811.9,5.01,0.00,21.6,20.2,00.0,30.7,23.4,14.0,0000.0,0003.14,0000.78,0000.35
2022-12-02 13:20:00,,0812.0,5.00,0.00,21.7,20.2,00.0,30.7,23.3,14.0,0000.0,0003.09,0000.75,0000.34
2022-12-02 13:21:00,,0812.0,5.01,0.00,21.6,20.2,00.0,30.7,23.3,14.0,0000.0,0003.13,0000.78,0000.34
2022-12-02 13:22:00,,0812.1,5.01,0.00,21.6,20.2,00.0,30.6,23.3,14.5,0000.0,0002.42,0000.76,0000.34
2022-12-02 13:23:00,,0812.0,4.99,0.00,21.6,20.2,00.0,30.6,23.3,14.6,0000.0,0002.48,0000.76,0000.34
2022-12-02 13:24:00,,0812.1,5.00,0.00,21.6,20.2,00.0,30.6,23.3,14.6,0000.0,0002.54,0000.76,0000.33
2022-12-02 13:25:00,,0812.1,5.00,0.00,21.6,20.2,00.0,30.6,23.2,14.3,0000.0,0002.63,0000.81,0000.33
2022-12-02 13:26:00,,0812.0,5.00,0.00,21.6,20.2,00.0,30.6,23.4,14.2,0000.0,0002.57,0000.84,0000.33
2022-12-02 13:27:00,,0812.0,5.00,0.00,21.6,20.2,00.0,30.6,23.3,13.9,0000.0,0002.08,0000.82,0000.33
2022-12-02 13:28:00,,0812.1,5.00,0.00,21.6,20.1,00.0,30.6,23.2,13.9,0000.0,0002.15,0000.80,0000.33
2022-12-02 13:29:00,,0812.2,5.00,0.00,21.6,20.2,00.0,30.6,23.3,13.9,0000.0,0002.51,0000.80,0000.32
2022-12-02 13:30:00,,0812.1,5.01,0.00,21.6,20.1,00.0,30.6,23.3,14.1,0000.0,0003.69,0000.81,0000.32
2022-12-02 13:31:00,,0812.1,5.01,0.00,21.6,20.1,00.0,30.6,23.3,14.3,0000.0,0004.27,0000.83,0000.32
2022-12-02 13:32:00,,0812.1,5.00,0.00,21.6,20.2,00.0,30.6,23.3,14.5,0000.0,0004.31,0000.83,0000.33
2022-12-02 13:33:00,,0812.0,5.00,0.00,21.6,20.2,00.0,30.6,23.3,14.5,0000.0,0004.32,0000.83,0000.33
2022-12-02 13:34:00,,0812.1,5.00,0.00,21.6,20.2,00.0,30.6,23.3,14.2,0000.0,0004.19,0000.82,0000.33
2022-12-02 13:35:00,,0812.1,5.00,0.00,21.6,20.2,00.0,30.6,23.3,14.3,0000.0,0004.16,0000.82,0000.33
2022-12-02 13:36:00,,0812.1,5.00,0.00,21.6,20.2,00.0,30.6,23.2,14.2,0000.0,0004.80,0000.80,0000.33
2022-12-02 13:37:00,,0812.1,5.00,0.00,21.6,20.2,00.0,30.6,23.3,14.2,0000.0,0005.13,0000.85,0000.33
2022-12-02 13:38:00,,0812.1,5.00,0.00,21.6,20.2,00.0,30.6,23.2,14.2,0000.0,0006.20,0000.91,0000.33
2022-12-02 13:39:00,,0812.2,5.01,0.00,21.6,20.1,00.0,30.6,23.2,14.2,0000.0,0006.90,0000.91,0000.33
2022-12-02 13:40:00,,0812.2,5.01,0.00,21.6,20.1,00.0,30.6,23.2,14.3,0000.0,0007.30,0000.90,0000.33
2022-12-02 13:41:00,,0812.1,5.00,0.00,21.6,20.1,00.0,30.6,23.3,14.3,0000.0,0006.22,0000.87,0000.33
2022-12-02 13:42:00,,0812.1,5.00,0.00,21.6,20.1,00.0,30.6,23.3,14.1,0000.0,0005.36,0000.83,0000.33
2022-12-02 13:43:00,,0812.2,5.00,0.00,21.5,20.1,00.0,30.5,23.3,14.3,0000.0,0005.30,0000.81,0000.33
2022-12-02 13:44:00,,0812.2,5.00,0.00,21.5,20.1,00.0,30.5,23.3,14.4,0000.0,0005.29,0000.79,0000.32
2022-12-02 13:45:00,,0812.2,5.00,0.00,21.5,20.1,00.0,30.5,23.3,14.5,0000.0,0005.55,0000.82,0000.33
2022-12-02 13:46:00,,0812.2,5.00,0.00,21.5,20.1,00.0,30.5,23.2,14.3,0000.0,0005.54,0000.84,0000.32
2022-12-02 13:47:00,,0812.2,5.01,0.00,21.5,20.1,00.0,30.5,23.2,14.4,0000.0,0004.90,0000.83,0000.32
2022-12-02 13:48:00,,0812.3,4.99,0.00,21.5,20.1,00.0,30.5,23.2,14.6,0000.0,0004.49,0000.83,0000.31
2022-12-02 13:49:00,,0812.3,4.99,0.00,21.5,20.1,00.0,30.5,23.2,14.5,0000.0,0003.70,0000.75,0000.31
2022-12-02 13:50:00,,0812.3,5.01,0.00,21.5,20.0,00.0,30.5,23.3,14.4,0000.0,0002.85,0000.75,0000.30
2022-12-02 13:51:00,,0812.3,5.00,0.00,21.5,20.0,00.0,30.5,23.2,14.4,0000.0,0002.05,0000.76,0000.30
2022-12-02 13:52:00,,0812.3,5.01,0.00,21.4,20.0,00.0,30.5,23.2,14.3,0000.0,0002.47,0000.80,0000.30
2022-12-02 13:53:00,,0812.3,5.00,0.00,21.4,19.9,00.0,30.5,23.2,14.4,0000.0,0002.58,0000.83,0000.29
2022-12-02 13:54:00,,0812.3,5.00,0.00,21.4,19.9,00.0,30.5,23.2,14.5,0000.0,0002.79,0000.85,0000.30
2022-12-02 13:55:00,,0812.3,5.00,0.00,21.4,19.9,00.0,30.4,23.2,14.5,0000.0,0002.81,0000.85,0000.30
2022-12-02 13:56:00,,0812.3,5.00,0.00,21.4,20.6,00.0,30.4,23.3,14.4,0000.0,0002.61,0000.84,0000.30
2022-12-02 13:57:00,,0812.3,4.99,0.00,21.6,21.6,00.0,30.3,23.6,14.6,0000.0,0002.67,0000.84,0000.30
2022-12-02 13:58:00,,0812.3,4.98,0.00,21.6,21.6,00.0,30.4,23.7,14.6,0000.0,0002.69,0000.83,0000.30
2022-12-02 13:59:00,,0812.2,5.00,0.00,21.6,21.2,00.0,30.4,23.6,14.7,0000.0,0002.77,0000.83,0000.29
